Regional Weather Roundup
Issued by NWS Kansas City/Pleasant Hill, MO

Home | Current Version | Previous Version | Graphics & Text | Print | Product List | Glossary Off
Versions: 1 2 3 4 5 6 7 8 9 10 11 12 13 14 15 16 17 18 19 20 21 22 23 24 25 26 27 28 29 30 31 32 33 34 35 36 37 38 39 40 41 42 43 44 45 46 47 48 49 50

000
ASUS43 KEAX 222311
RWREAX

WEATHER ROUNDUP FOR EASTERN KANSAS AND NORTHWEST MISSOURI
NATIONAL WEATHER SERVICE KANSAS CITY/PLEASANT HILL MO
600 PM CDT FRI AUG 22 2014

KSZ040-057-103>105-MOZ028-029-037-043-230000-
...KANSAS CITY METROPOLITAN AREA...

CITY           SKY/WX    TMP DP  RH WIND       PRES   REMARKS
K.C. INTL      CLOUDY    92  74  55 CALM      29.92R HX 101
K.C. DOWNTOWN  PTSUNNY   93  75  55 SE3       29.89R HX 104
LEES SUMMIT    PTSUNNY   91  78  65 E7        29.92R HX 106
OLATHE - IXD   PTSUNNY   86  70  58 SE7       29.92R HX  90
OLATHE - OJC   PTSUNNY   87  69  54 VRB3      29.91R HX  91
LAWRENCE       PTSUNNY   97  72  44 W3        29.89S HX 105

$$

MOZ001>008-011>017-020>025-030>033-038>040-044>046-053-054-230000-
...NORTHERN AND CENTRAL MISSOURI...

CITY           SKY/WX    TMP DP  RH WIND       PRES   REMARKS
ST. JOSEPH     PTSUNNY   85  77  77 E10       29.89F HX  95
MOSBY          MOCLDY    90  77  66 E3        29.90S HX 102
WHITEMAN AFB   PTSUNNY   90  63  39 NE1       29.91R HX  90
CLINTON        PTSUNNY   88  72  58 SE6       29.92R HX  94
SEDALIA        MOSUNNY   94  76  55 S6        29.93R HX 106
WARSAW         NOT AVBL
MARSHALL       PTSUNNY   91  81  70 CALM      29.93R HX 110
CHILLICOTHE      N/A     90  76  63 SW5       29.94R HX 101
MOBERLY        PTSUNNY   90  77  66 CALM      29.94S HX 102
KIRKSVILLE     PTSUNNY   88  78  72 S5        29.94F HX 101

$$

MOZ041-047>049-056>058-063>065-088>090-097-230000-
...EASTERN AND SOUTHERN MISSOURI...

CITY           SKY/WX    TMP DP  RH WIND       PRES   REMARKS
ST. LOUIS INTL PTSUNNY   92  76  59 SW7       29.93F HX 104
SPIRIT OF STL  PTSUNNY   91  77  63 CALM      29.91F HX 104
COLUMBIA       MOSUNNY   93  76  57 S5        29.92F HX 105
JEFFERSON CITY MOSUNNY   97  75  49 CALM      29.90F HX 109
MEXICO         PTSUNNY   91  81  70 S6        29.92F HX 110
HANNIBAL       PTSUNNY   88  75  66 CALM      29.92F HX  97
ROLLA          PTSUNNY   93  69  45 S6        29.93F HX  98
LEBANON        MOSUNNY   97  57  26 SW8       29.96R HX  95
OSAGE BEACH    MOSUNNY   97  73  46 E5        29.91S HX 107
SPRINGFIELD    SUNNY     96  64  34 SW14      29.95S HX  98
BRANSON        MOSUNNY  100  66  32 S12       29.98F HX 104
NEVADA         SUNNY     97  70  41 S10G16    29.93R HX 103
JOPLIN         SUNNY     96  66  37 S17       29.95R HX  99
WEST PLAINS    PTSUNNY   91  71  51 S6        29.99F HX  97

$$

IAZ060-094-KSZ022-034>040-054-083-096-NEZ052-066-093-230000-
...KANSAS...SOUTHEAST NEBRASKA AND IOWA...

CITY           SKY/WX    TMP DP  RH WIND       PRES   REMARKS
TOPEKA         LGT RAIN  89  73  59 SE8       29.89F HX  97
MANHATTAN      CLOUDY    91  71  51 S9        29.88R HX  97
EMPORIA        LGT RAIN  75  65  70 S10       29.89F
CHANUTE        MOSUNNY   84  63  49 W10G22    29.92R
WICHITA        MOSUNNY   99  64  31 S17       29.85S HX 101
OMAHA          TSTM      77  73  87 SW6       29.89F
LINCOLN        PTSUNNY   90  69  50 S10       29.88F HX  94
FALLS CITY     CLOUDY    81  77  88 E5        29.88R
LAMONI         MOSUNNY   82  75  79 N3        29.93F
DES MOINES     PTSUNNY   86  78  77 S3        29.91R HX  98

$$



USA.gov is the U.S. government's official web portal to all federal, state and local government web resources and services.